[[{"header":{"parameterUnit":"m.s-1","parameterCategory":1,"la1":30.2991,"la2":30.254,"lo1":-89.0895,"lo2":-89.0444,"dx":0.0017,"dy":0.0017,"nx":28,"ny":28,"refTime":"2023-02-06T15:00:00:Z","depth":0,"parameterNumber":2,"parameterNumberName":"U-component_of_WINDS"},"data":[0,0,0,0,0,0,0,0,0,0,0,0,0,0,0,0,0,0,0,0,0,0,0,0,0,0,0,0,0,0,0,0,0,0,0,0,0,0,0,0,0,0,0,0,0,0,0,0,0,0,0,0,0,0,0,0,0,0,-4.054,-4.0541,0,-4.0615,-4.0616,-4.0617,-4.0581,-4.0579,-4.0577,-4.0575,-4.065,-4.0653,-4.0657,0,0,0,0,0,0,0,0,0,0,0,0,0,-4.0364,-4.0367,-4.054,-4.0541,-4.0542,-4.0615,-4.0616,-4.0617,-4.0581,-4.0579,-4.0576,-4.0574,-4.0648,-4.0653,-4.0657,0,0,0,0,0,0,0,0,0,0,0,0,0,-4.044,-4.0368,-4.054,-4.0533,-4.0533,-4.0615,-4.0616,-4.0617,-4.0582,-4.0579,-4.0576,-4.0573,-4.0647,-4.0652,-4.0658,-4.0751,0,0,-4.0675,-4.0678,0,0,0,0,0,0,0,0,-4.0435,-4.0446,-4.0533,-4.0533,-4.0534,-4.0586,-4.0581,-4.0662,-4.0582,-4.0563,-4.0575,-4.0572,-4.0631,-4.0637,-4.0658,-4.0754,-4.0757,-4.0676,-4.0679,-4.0682,-4.0683,0,0,0,0,0,0,0,-4.043,-4.0443,-4.057,-4.0534,-4.0535,-4.0525,-4.0533,-4.0596,-4.0612,-4.0564,-4.0562,-4.0572,-4.063,-4.0652,-4.0659,-4.0758,-4.0676,-4.0681,-4.0684,-4.0686,-4.0935,-4.0938,0,0,0,0,0,0,-4.0425,-4.0439,-4.0567,-4.0572,-4.0477,-4.0531,-4.0539,-4.0572,-4.0611,-4.0614,-4.0574,-4.057,-4.0644,-4.0653,-4.0662,-4.0772,-4.0682,-4.0687,-4.069,-4.0932,-4.0936,-4.0939,0,0,0,0,0,0,-4.0422,-4.0437,-4.0564,-4.0505,-4.052,-4.0537,-4.0574,-4.0575,-4.0597,-4.0618,-4.0621,-4.0594,-4.0642,-4.0654,-4.0729,-4.0774,-4.0689,-4.0695,-4.0928,-4.0933,-4.0937,-4.0995,0,0,0,0,0,0,-4.0417,-4.0436,-4.0472,-4.0506,-4.0524,-4.0631,-4.0577,-4.0578,-4.0607,-4.0602,-4.0638,-4.0641,-4.0641,-4.0721,-4.0735,-4.0781,-4.0699,-4.0924,-4.093,-4.0936,-4.0989,-4.1001,-4.1011,0,0,0,0,0,-4.0411,-4.0484,-4.0474,-4.0489,-4.0568,-4.0634,-4.0644,-4.0643,-4.0611,-4.0647,-4.0661,-4.064,-4.0768,-4.0729,-4.0744,-4.0793,-4.0921,-4.0928,-4.0935,-4.0984,-4.0998,-4.1011,0,0,0,0,0,0,-4.0454,-4.0488,-4.0477,-4.0564,-4.0596,-4.0627,-4.0672,-4.0659,-4.07,-4.0693,-4.069,-4.0698,-4.0776,-4.0792,-4.0748,-4.0884,-4.0839,-4.085,-4.0871,-4.0885,-4.0896,-4.089,-4.0704,0,0,0,0,0,-4.0474,-4.0524,-4.0552,-4.0626,-4.0643,-4.0655,-4.0683,-4.068,-4.0713,-4.0726,-4.0745,-4.0778,-4.0825,-4.0856,-4.0901,-4.0992,-4.0998,-4.1033,-4.1044,-4.1053,-4.1062,-4.111,-4.1126,-4.0963,-4.0963,-4.0962,0,0,-4.0515,-4.054,-4.0572,-4.0635,-4.066,-4.0712,-4.0666,-4.0723,-4.0761,-4.0734,-4.0807,-4.0823,-4.0858,-4.0942,-4.0979,-4.0957,-4.1109,-4.1062,-4.1069,-4.1073,-4.1119,-4.1135,-4.1149,-4.0968,-4.0967,-4.0966,0,0,-4.0615,-4.064,-4.0704,-4.0731,-4.0769,-4.0777,-4.0793,-4.0826,-4.0836,-4.0909,-4.089,-4.0935,-4.1017,-4.1044,-4.1068,-4.1181,-4.1163,-4.1196,-4.1253,-4.1301,-4.1314,-4.1325,-4.1365,-4.1379,-4.1205,-4.1205,-4.1205,0,-4.0661,-4.0739,-4.0739,-4.0798,-4.0826,-4.0806,-4.0871,-4.0896,-4.0947,-4.0966,-4.0941,-4.1044,-4.1067,-4.1156,-4.1184,-4.1205,-4.1222,-4.119,-4.1312,-4.1324,-4.1334,-4.1372,-4.1387,-4.1208,-4.1208,-4.1208,-4.1207,0,-4.0793,-4.0848,-4.0895,-4.0946,-4.098,-4.1041,-4.105,-4.1084,-4.1079,-4.109,-4.1164,-4.1191,-4.1241,-4.1263,-4.1258,-4.1352,-4.1337,-4.1312,-4.1266,-4.1353,-4.1389,-4.1403,-4.1214,-4.1212,-4.1211,-4.121,0,0,-4.0921,-4.0972,-4.099,-4.1012,-4.1054,-4.1096,-4.1157,-4.1207,-4.1236,-4.1273,-4.1323,-4.1394,-4.1372,-4.14,-4.1398,-4.144,-4.1527,-4.141,-4.1411,-4.143,-4.1631,-4.1648,-4.1665,-4.1516,-4.1519,-4.1521,-4.1628,0,-4.1024,-4.1131,-4.1133,-4.1231,-4.1281,-4.1264,-4.1317,-4.1348,-4.136,-4.1404,-4.1417,-4.1467,-4.1435,-4.1452,-4.1493,-4.1508,-4.1567,-4.15,-4.1562,-4.1564,-4.1552,-4.1684,-4.1701,-4.1801,-4.1642,-4.1644,-4.1646,0,-4.1158,-4.1199,-4.1302,-4.1338,-4.1359,-4.1407,-4.1453,-4.1496,-4.1531,-4.1537,-4.1569,-4.1561,-4.1623,-4.1577,-4.1662,-4.1616,-4.1642,-4.1653,-4.1657,-4.1661,-4.1609,-4.169,-4.1832,-4.1847,-4.1668,-4.1666,-4.1665,0,-4.1239,-4.1321,-4.1394,-4.1414,-4.1457,-4.1491,-4.1511,-4.1543,-4.1573,-4.1614,-4.1634,-4.1681,-4.1706,-4.1743,-4.1748,-4.1714,-4.1833,-4.1787,-4.1839,-4.1839,-4.1862,-4.1861,-4.201,-4.1882,-4.1882,-4.1882,-4.1881,0,-4.1353,-4.1416,-4.1431,-4.1475,-4.1546,-4.1549,-4.1618,-4.1635,-4.1665,-4.1712,-4.17,-4.1744,-4.1749,-4.1794,-4.1799,-4.1868,-4.188,-4.1886,-4.1886,-4.1886,-4.1885,-4.1901,-4.1894,-4.1886,-4.1885,-4.1884,-4.1883,0,-4.1455,-4.1467,-4.1545,-4.158,-4.1591,-4.1641,-4.1671,-4.1713,-4.1725,-4.1785,-4.1799,-4.1817,-4.187,-4.188,-4.1942,-4.1945,-4.2027,-4.2021,-4.2015,-4.2014,-4.2064,-4.2059,-4.2227,-4.2249,-4.2109,-4.211,-4.2112,0,-4.1525,-4.1574,-4.1615,-4.1646,-4.1668,-4.1718,-4.1749,-4.1754,-4.1787,-4.1832,-4.1869,-4.1921,-4.1963,-4.2049,-4.2067,-4.2115,-4.2109,-4.2165,-4.2116,-4.2114,-4.2108,-4.2104,-4.2109,-4.2173,-4.2175,-4.2176,-4.2177,0,-4.1649,-4.1654,-4.1699,-4.1748,-4.1786,-4.1824,-4.186,-4.1886,-4.1896,-4.1934,-4.1989,-4.2021,-4.2086,-4.2138,-4.2186,-4.2205,-4.2193,-4.2193,-4.2207,-4.2206,-4.2201,-4.2203,-4.2039,-4.2188,-4.2187,-4.2186,-4.2186,-4.2185,-4.1737,-4.1779,-4.1815,-4.1867,-4.1895,-4.1929,-4.1971,-4.1989,-4.2035,-4.2088,-4.2089,-4.2149,-4.2184,-4.2247,-4.227,-4.2316,-4.2298,-4.2319,-4.2324,-4.2329,-4.2333,-4.2195,-4.2325,-4.2325,-4.2325,-4.2324,-4.2324,0,-4.1859,-4.1882,-4.1929,-4.1981,-4.2022,-4.2009,-4.2048,-4.2083,-4.2136,-4.217,-4.2212,-4.2275,-4.2326,-4.2349,-4.2399,-4.2432,-4.2428,-4.2445,-4.2441,-4.2446,-4.2347,-4.2329,-4.2448,-4.2448,-4.2448,-4.2448,-4.2448,-4.2447,-4.1927,-4.1998,-4.2007,-4.2092,-4.2114,-4.2173,-4.2197,-4.2229,-4.2256,-4.2328,-4.237,-4.2386,-4.2415,-4.2468,-4.2513,-4.2519,-4.2537,-4.2557,-4.256,-4.2466,-4.2453,-4.2441,-4.2424,-4.2561,-4.2561,-4.2655,-4.2656,-4.2656]},{"header":{"parameterUnit":"m.s-1","parameterCategory":1,"la1":30.2991,"la2":30.254,"lo1":-89.0895,"lo2":-89.0444,"dx":0.0017,"dy":0.0017,"nx":28,"ny":28,"refTime":"2023-02-06T15:00:00:Z","depth":0,"parameterNumber":3,"parameterNumberName":"V-component_of_WINDS"},"data":[0,0,0,0,0,0,0,0,0,0,0,0,0,0,0,0,0,0,0,0,0,0,0,0,0,0,0,0,0,0,0,0,0,0,0,0,0,0,0,0,0,0,0,0,0,0,0,0,0,0,0,0,0,0,0,0,0,0,2.1627,2.1628,0,2.1721,2.1722,2.1723,2.1728,2.1727,2.1726,2.1725,2.1827,2.183,2.1834,0,0,0,0,0,0,0,0,0,0,0,0,0,2.1459,2.1462,2.1626,2.1628,2.1629,2.1721,2.1722,2.1723,2.1729,2.1727,2.1726,2.1725,2.1826,2.183,2.1834,0,0,0,0,0,0,0,0,0,0,0,0,0,2.1541,2.1463,2.1626,2.1642,2.1645,2.172,2.1722,2.1723,2.1729,2.1727,2.1726,2.1724,2.1824,2.1829,2.1835,2.1902,0,0,2.1852,2.1854,0,0,0,0,0,0,0,0,2.1536,2.1547,2.1639,2.1641,2.1644,2.1711,2.17,2.1784,2.1729,2.1697,2.1725,2.1723,2.179,2.1798,2.182,2.1907,2.1911,2.1853,2.1856,2.1858,2.186,0,0,0,0,0,0,0,2.153,2.1543,2.1664,2.164,2.1644,2.1648,2.1657,2.1716,2.1752,2.17,2.17,2.1711,2.1791,2.1814,2.1822,2.1913,2.1852,2.1857,2.1861,2.1863,2.2065,2.2067,0,0,0,0,0,0,2.1521,2.1538,2.1661,2.1667,2.1585,2.1652,2.1663,2.1691,2.1751,2.1758,2.1712,2.1711,2.1805,2.1816,2.1826,2.1911,2.1858,2.1864,2.1867,2.2063,2.2066,2.2068,0,0,0,0,0,0,2.1517,2.1532,2.1657,2.1603,2.1619,2.1657,2.1689,2.1694,2.1717,2.1761,2.1768,2.1729,2.1805,2.1818,2.1884,2.1915,2.1866,2.1871,2.2061,2.2064,2.2067,2.2081,0,0,0,0,0,0,2.1512,2.153,2.1554,2.1603,2.1622,2.1711,2.169,2.1697,2.1726,2.1725,2.1778,2.1785,2.1804,2.1876,2.1889,2.1921,2.1875,2.2058,2.2062,2.2066,2.2078,2.2084,2.2089,0,0,0,0,0,2.1506,2.1554,2.1555,2.157,2.1652,2.1713,2.1724,2.1743,2.1728,2.1754,2.1783,2.1784,2.1909,2.1882,2.1898,2.1932,2.2056,2.2061,2.2066,2.2075,2.2083,2.2089,0,0,0,0,0,0,2.1509,2.1561,2.1562,2.1627,2.1666,2.1714,2.1746,2.175,2.1795,2.1792,2.1816,2.1828,2.1895,2.192,2.1889,2.2003,2.1981,2.1989,2.1983,2.1991,2.1997,2.199,2.188,0,0,0,0,0,2.1517,2.156,2.1604,2.1657,2.1676,2.1708,2.1736,2.1748,2.1789,2.1806,2.1839,2.1881,2.193,2.1962,2.2009,2.2082,2.2095,2.2114,2.2119,2.2124,2.2131,2.2175,2.2184,2.2083,2.2083,2.2083,0,0,2.1534,2.1568,2.1594,2.1659,2.169,2.1737,2.1722,2.1771,2.1807,2.1814,2.1878,2.1905,2.1953,2.2024,2.2056,2.2047,2.2162,2.213,2.2133,2.2137,2.218,2.219,2.2199,2.2086,2.2085,2.2085,0,0,2.159,2.1618,2.1667,2.1699,2.1746,2.1768,2.178,2.1828,2.1846,2.1911,2.1918,2.1962,2.2045,2.2081,2.211,2.2183,2.2187,2.2198,2.2228,2.2271,2.2279,2.2286,2.2315,2.2325,2.2205,2.2205,2.2205,0,2.1606,2.1674,2.1693,2.1743,2.1773,2.178,2.1832,2.1863,2.1924,2.1946,2.1934,2.2041,2.2074,2.2155,2.2173,2.2195,2.2213,2.2192,2.2276,2.2284,2.2291,2.2319,2.2329,2.2206,2.2206,2.2206,2.2206,0,2.1693,2.1741,2.1775,2.1833,2.1867,2.1918,2.1947,2.198,2.199,2.2014,2.2083,2.2123,2.2181,2.2201,2.2211,2.2284,2.2277,2.2271,2.225,2.2301,2.2328,2.2339,2.2208,2.2207,2.2207,2.2207,0,0,2.1752,2.1821,2.1833,2.1861,2.1915,2.1954,2.2007,2.2062,2.2091,2.2134,2.2182,2.2254,2.2249,2.2282,2.2297,2.2334,2.2394,2.2324,2.2325,2.2337,2.2481,2.2487,2.2499,2.2396,2.2398,2.24,2.2478,0,2.1815,2.1906,2.1926,2.2007,2.2054,2.2063,2.211,2.215,2.2175,2.222,2.2249,2.23,2.2288,2.2309,2.2346,2.2378,2.2423,2.2373,2.2444,2.2446,2.2432,2.2512,2.2518,2.2589,2.2488,2.249,2.2491,0,2.19,2.1944,2.2029,2.208,2.2101,2.2142,2.2196,2.2238,2.2286,2.2302,2.234,2.2352,2.2411,2.2387,2.2472,2.2437,2.2468,2.2488,2.2492,2.25,2.2472,2.2525,2.2612,2.2623,2.2507,2.2506,2.2505,0,2.1937,2.2018,2.208,2.2104,2.2164,2.2193,2.2221,2.2266,2.2299,2.2348,2.237,2.2425,2.2456,2.25,2.2528,2.2507,2.2611,2.2589,2.2629,2.2628,2.265,2.2649,2.2745,2.2667,2.2667,2.2667,2.2667,0,2.2006,2.2059,2.2098,2.2136,2.2197,2.2221,2.2281,2.2308,2.235,2.2396,2.2408,2.2452,2.2486,2.2535,2.2558,2.2626,2.264,2.2656,2.2662,2.2656,2.2654,2.2677,2.2674,2.267,2.2669,2.2669,2.2668,0,2.2058,2.2086,2.2155,2.2207,2.2221,2.2264,2.231,2.235,2.2375,2.2434,2.245,2.2491,2.2551,2.2583,2.2657,2.2673,2.275,2.2752,2.2734,2.2737,2.2775,2.2772,2.2892,2.291,2.2818,2.2818,2.2819,0,2.2101,2.2141,2.2198,2.2229,2.2256,2.2306,2.234,2.2367,2.2403,2.2462,2.2495,2.2555,2.2605,2.27,2.2739,2.2797,2.2802,2.284,2.2811,2.2805,2.2806,2.2804,2.2809,2.2845,2.2846,2.2847,2.2847,0,2.2175,2.2187,2.2234,2.2288,2.2328,2.2372,2.2415,2.2441,2.2476,2.2516,2.2576,2.2614,2.2691,2.2752,2.2814,2.2846,2.2854,2.2856,2.2869,2.2864,2.2853,2.2862,2.275,2.2853,2.2853,2.2852,2.2852,2.2852,2.2225,2.2263,2.2309,2.2362,2.2398,2.2439,2.248,2.2511,2.2561,2.2624,2.2638,2.2703,2.2754,2.2838,2.2871,2.2925,2.2918,2.2935,2.294,2.2945,2.2948,2.2843,2.2936,2.2936,2.2936,2.2936,2.2936,0,2.2302,2.2332,2.2381,2.2442,2.2485,2.2487,2.2536,2.2573,2.2629,2.2675,2.2724,2.2796,2.2856,2.29,2.2962,2.2997,2.3002,2.3012,2.3011,2.3019,2.2949,2.2933,2.3007,2.3007,2.3007,2.3007,2.3007,2.3007,2.2347,2.2412,2.243,2.2515,2.2546,2.2608,2.2636,2.2676,2.2713,2.2792,2.2841,2.2869,2.2916,2.2982,2.3038,2.305,2.3074,2.3084,2.3096,2.3031,2.3023,2.3016,2.3001,2.3088,2.3088,2.3162,2.3163,2.3163]}]]